Regional Weather Roundup
Issued by NWS

Home | Current Version | Previous Version | Graphics & Text | Print | Product List | Glossary On
Versions: 1 2 3 4 5 6 7 8 9 10 11 12 13 14 15 16 17 18 19 20 21 22 23 24 25 26 27 28 29 30 31 32 33 34 35 36 37 38 39 40 41 42 43 44 45 46 47 48 49 50
000
ASUS44 KMEG 172310
RWRTN
TENNESSEE HOURLY STATE WEATHER ROUNDUP
NATIONAL WEATHER SERVICE MEMPHIS TN
600 PM CDT THU APR 17 2014

TNZ002-004-019-021-049-052-054-088>092-180000-
WEST TENNESSEE

CITY           SKY/WX    TMP DP  RH WIND       PRES   REMARKS
MEMPHIS INTL   CLOUDY    70  39  32 E7        30.19S
NWS MEMPHIS      N/A     70 N/A N/A MISG        N/A
JACKSON        MOSUNNY   68  37  32 E7        30.21F
DYERSBURG      MOSUNNY   66  37  34 E6        30.22F
UNION CITY     SUNNY     66  37  34 CALM      30.22S
LEXINGTON      SUNNY     68  34  28 SE6       30.22F
$$

TNZ008-025-027-028-033-062-065-066-180000-
NORTH MIDDLE TENNESSEE

CITY           SKY/WX    TMP DP  RH WIND       PRES   REMARKS
NASHVILLE      PTSUNNY   68  34  28 S7        30.26F
DICKSON        SUNNY     66  30  26 S7        30.25S
PORTLAND       SUNNY     66  32  28 S6        30.25F
CLARKSVILLE    SUNNY     67  36  31 SE8       30.24F
SMYRNA         SUNNY     67  38  34 VRB3      30.27F
MURFREESBORO   SUNNY     68  35  29 CALM      30.25
LIVINGSTON     SUNNY     65  26  23 SE7       30.27F
GALLATIN       SUNNY     69  33  26 SW3       30.27F
CROSSVILLE     SUNNY     62  28  27 S8        30.30S
$$

TNZ061-075-076-078-094-096-097-180000-
SOUTH MIDDLE TENNESSEE

CITY           SKY/WX    TMP DP  RH WIND       PRES   REMARKS
LEWISBURG      SUNNY     66  41  40 S5        30.25S
FAYETTEVILLE   MOSUNNY   64  38  38 S7        30.26F
TULLAHOMA      SUNNY     64  37  36 S5        30.27F
WINCHESTER     SUNNY     64  39  39 SE8       30.27S
MCMINNVILLE    SUNNY     66  37  34 CALM      30.26S
COLUMBIA       SUNNY     66  46  48 S8        30.23F
SHELBYVILLE    SUNNY     66  43  42 S6        30.26F
$$

TNZ017-018-042-046-047-180000-
NORTHEAST TENNESSEE

CITY           SKY/WX    TMP DP  RH WIND       PRES   REMARKS
TRI CITIES     MOSUNNY   67  21  17 SE9       30.30R
ELIZABETHTON   CLEAR     61  23  23 CALM      30.33R
$$

TNZ012-013-036-069-073-074-180000-
CENTRAL EAST TENNESSEE

CITY           SKY/WX    TMP DP  RH WIND       PRES   REMARKS
KNOXVILLE      PTSUNNY   67  31  26 N3        30.27F
OAK RIDGE      SUNNY     68  28  22 CALM      30.29F
$$

TNZ083-085-099-180000-
SOUTHEAST TENNESSEE

CITY           SKY/WX    TMP DP  RH WIND       PRES   REMARKS
CHATTANOOGA    PTSUNNY   66  38  35 S9        30.28S
$$

SKY/WX REPORTED AS FAIR MEANS FEW OR NO CLOUDS BELOW
12 THOUSAND FEET.




USA.gov is the U.S. government's official web portal to all federal, state and local government web resources and services.